Regional Weather Roundup
Issued by NWS

Home | Current Version | Previous Version | Graphics & Text | Print | Product List | Glossary On
Versions: 1 2 3 4 5 6 7 8 9 10 11 12 13 14 15 16 17 18 19 20 21 22 23 24 25 26 27 28 29 30 31 32 33 34 35 36 37 38 39 40 41 42 43 44 45 46 47 48 49 50
000
ASUS43 KLOT 230606
RWRIL

ILLINOIS REGIONAL WEATHER ROUNDUP
NATIONAL WEATHER SERVICE CHICAGO/ROMEOVILLE IL
100 AM CDT SAT AUG 23 2014

NOTE: "FAIR" INDICATES FEW OR NO CLOUDS BELOW 12,000 FEET WITH NO
SIGNIFICANT WEATHER AND/OR OBSTRUCTIONS TO VISIBILITY.

* THESE STATIONS ARE NOT UNDER NWS QUALITY CONTROL. THEY ALSO MAY NOT
  REPORT WEATHER SUCH AS PRECIPITATION OR FOG.

ILZ001-002-007-009-015-016-024-230700-
NORTHWEST ILLINOIS

CITY           SKY/WX    TMP DP  RH WIND       PRES   REMARKS
MOLINE         MOCLDY    76  73  91 E6        29.93F
6HR MIN TEMP:  73; 6HR MAX TEMP:  84;

STERLING*      FAIR      73  72  94 CALM      29.96F
SAVANNA*       FAIR      76  74  92 N3        29.95F FOG
$$

ILZ003-004-008-010-011-017-018-230700-
NORTH CENTRAL ILLINOIS

CITY           SKY/WX    TMP DP  RH WIND       PRES   REMARKS
ROCKFORD       CLOUDY    75  72  90 CALM      29.98S
6HR MIN TEMP:  75; 6HR MAX TEMP:  81;

FREEPORT*      FAIR      73  72  96 CALM      29.99S FOG
ROCHELLE*      MOCLDY    73  72  94 CALM      29.98F FOG
DE KALB*       FAIR      72  71  96 CALM      29.99S
PERU*          FAIR      75  73  92 CALM      29.97F
$$

ILZ005-006-012>014-019>023-230700-
NORTHEAST ILLINOIS

CITY           SKY/WX    TMP DP  RH WIND       PRES   REMARKS
CHICAGO-OHARE  MOCLDY    77  70  79 CALM      29.96F
6HR MIN TEMP:  75; 6HR MAX TEMP:  82;

CHICAGO-MIDWAY MOCLDY    79  74  84 SW3       29.96F HX  82
6HR MIN TEMP:  78; 6HR MAX TEMP:  83;

AURORA         MOCLDY    75  72  90 CALM      29.98S FOG
6HR MIN TEMP:  74; 6HR MAX TEMP:  82;

LANSING*       FAIR      72  71  98 CALM      29.98S
JOLIET*        MOCLDY    74  72  92 CALM      29.98S
WAUKEGAN       FOG       72  71  97 CALM      29.99S VSB 3/4
6HR MIN TEMP:  72; 6HR MAX TEMP:  75;

DUPAGE AIRPORT FAIR      74  72  93 CALM      29.98S
6HR MIN TEMP:  74; 6HR MAX TEMP:  81;

KANKAKEE*      FAIR      72  71  98 CALM      29.98F
WHEELING       FAIR      75  72  90 NE5       29.99S FOG
6HR MIN TEMP:  75; 6HR MAX TEMP:  81;

MORRIS*        FAIR      74  74 100 CALM      29.97S
ROMEOVILLE*    FAIR      73  72  99 SE3       29.98S FOG
NORTHERLY ISL    N/A     73  71  93 NW2         N/A
$$

LMZ740>746-230700-
SOUTHERN LAKE MICHIGAN

STATION/POSITION SKY/WX   TEMP    WIND        PRES    VSBY  WAVE
                          AIR SEA DIR/SP/G                  HT/PER
                          (F)     (DEG/KT/KT) (MB)    (MI)  (FT/S)
SOUTHERN BUOY              70 69   50/  8/  8 1015.4F         0
WAUKEGAN HARBOR            72      30/  5/  7   N/A
HARRISON CRIB              73      80/  7/  8   N/A
BURNHAM HARBOR             73     330/  1/  3   N/A
CALUMET HARBOR             77      CALM  /  2 1013.7F
MICHIGAN CITY              75      70/  1/  2   N/A
MICHIGAN CITY 6N           74 73  120/  2/  4   N/A           0
ST. JOSEPH                 74 73   70/  2/  2   N/A           0
$$

ILZ025>027-034>036-040-047-049-050-058-095>099-230700-
WEST-CENTRAL ILLINOIS

CITY           SKY/WX    TMP DP  RH WIND       PRES   REMARKS
QUINCY         FAIR      78  76  93 SE6       29.94F HX  81
GALESBURG*     FAIR      76  74  93 E3        29.95F
MACOMB*        FAIR      75  74  98 SE3       29.96F FOG
JACKSONVILLE*  FAIR      78  76  94 E5        29.96S FOG
PITTSFIELD*    FAIR      77  75  91 CALM      29.96S FOG
$$

ILZ028>032-037-038-041>044-048-051>054-059>061-230700-
CENTRAL ILLINOIS

CITY           SKY/WX    TMP DP  RH WIND       PRES   REMARKS
PONTIAC        FAIR      72  72 100 SE3       29.97S FOG
DECATUR        FAIR      76  74  93 CALM      29.97F
PEORIA         FAIR      78  73  84 CALM      29.96F HX  81
6HR MIN TEMP:  78; 6HR MAX TEMP:  86;

LACON*         FAIR      74  72  92 CALM      29.95F
LINCOLN*       FAIR      76  74  93 CALM      29.93F
SPRINGFIELD    CLOUDY    79  77  94 CALM      29.96S HX  83
6HR MIN TEMP:  78; 6HR MAX TEMP:  87;

TAYLORVILLE    FAIR      75  73  94 CALM      29.97R FOG
$$

ILZ033-039-045-046-055>057-062-063-230700-
EAST-CENTRAL ILLINOIS

CITY           SKY/WX    TMP DP  RH WIND       PRES   REMARKS
CHAMPAIGN      FAIR      73  72  96 E5        29.98F
DANVILLE*      RAIN      71  71  99 CALM      29.96S
RANTOUL*       FAIR      75  71  86 E3        29.99S
MATTOON        FAIR      78  76  93 S6        29.97F HX  81
PARIS*         FOG       72  72 100 CALM      29.99S VSB 3/4
$$

ILZ079-100>102-230700-
SOUTHWEST ILLINOIS

CITY           SKY/WX    TMP DP  RH WIND       PRES   REMARKS
ALTON          FAIR      78  78 100 NE3       29.95S FOG
BELLEVILLE     FOG       77  77 100 CALM      29.93S VSB 3/4
CAHOKIA*       FAIR      77  76  96 CALM      29.93S
SPARTA*        FAIR      80  76  88 S8        29.95S HX  86
$$

ILZ064>066-069>071-074>076-080>082-084>086-088>090-092>094-230700-
SOUTH-CENTRAL ILLINOIS

CITY           SKY/WX    TMP DP  RH WIND       PRES   REMARKS
CARBONDALE     FAIR      79  75  87 SW3       29.95F HX  83
6HR MIN TEMP:  79; 6HR MAX TEMP:  87;

CAIRO*         FAIR      82  76  80 S6        29.96F HX  89
MARION         FAIR      81  77  89 S6        29.96F HX  88
MT. VERNON     FAIR      77  73  88 CALM      29.96F
CENTRALIA*     FAIR      77  74  92 E3        29.96R FOG
SALEM*         FAIR      81  79  93 E5        29.97R HX  89
METROPOLIS*    FAIR      80  73  80 S3        29.97S HX  84
$$

ILZ067-068-072-073-078-083-087-091-230700-
SOUTHEAST ILLINOIS

CITY           SKY/WX    TMP DP  RH WIND       PRES   REMARKS
LAWRENCEVILLE  FAIR      77  76  96 S3        29.98F FOG
FLORA*         FAIR      77  76  96 SE7       29.98S
FAIRFIELD*     FAIR      81  79  94 E5        29.97S HX  89
HARRISBURG*    FAIR      77  77 100 CALM      29.97F
ROBINSON*      FAIR      77  77  98 CALM      29.99F FOG
CARMI*         MOCLDY    79  79 100 E3        29.97F FOG     HX  83
$$

ABBREVIATIONS USED IN REMARKS
   TC - TEMPERATURE IN CELSIUS
  WCI - WIND CHILL INDEX
   HX - HEAT INDEX
  VSB - VISIBILITY
$$




USA.gov is the U.S. government's official web portal to all federal, state and local government web resources and services.